Tracking 35237 objects as of 4-Sep-2026
HD Live streaming from Space Station
objects crossing your sky now

STARLINK-4577

Track STARLINK-4577 now!
10-day predictions
STARLINK-4577 is classified as:


NORAD ID: 53564
Int'l Code: 2022-101AP
Launch date: August 19, 2022
Source: United States (US)
Launch site: AIR FORCE EASTERN TEST RANGE (AFETR)
Your satellite tracking list
Your tracking list is empty




NASA's NSSDC Master Catalog

Two Line Element Set (TLE):
1 53564U 22101AP  26247.62259973  .00002490  00000-0  84784-4 0  9993
2 53564  53.1602 317.9704 0001382  64.5775 295.5370 15.34414765223638
Source of the keplerian elements: AFSPC